CW4691 Weather Reports


time (UTC)temp
C
wind
direction
speed
KPH
gust
KPH
rain 1hr
cm
rain 24hr
cm
rain mn
cm
humidity
%
barometer
mb
20260506044524 11 326 14.5 20.9 0.00 0.05 0.05 51 1010.2
20260506041555 12 360 16.1 35.4 0.00 0.05 0.05 48 1009.9
20260506040051 12 360 20.9 27.4 0.00 0.05 0.05 48 1009.6
20260506034529 12 360 19.3 29.0 0.00 0.05 0.05 47 1009.4
20260506033020 12 360 17.7 27.4 0.00 0.05 0.05 46 1008.9
20260506031533 13 360 14.5 27.4 0.00 0.05 0.05 45 1008.6
20260506030059 13 360 14.5 29.0 0.00 0.05 0.05 43 1008.2
20260506024531 13 360 24.1 35.4 0.00 0.05 0.05 41 1008.0
20260506023028 13 304 22.5 35.4 0.00 0.05 0.05 41 1007.6
20260506021506 14 360 20.9 33.8 0.00 0.05 0.05 39 1007.4
20260506020046 15 304 14.5 24.1 0.00 0.05 0.05 38 1007.2
20260506014512 15 360 20.9 33.8 0.00 0.05 0.05 37 1006.8
20260506013107 15 360 22.5 29.0 0.00 0.05 0.05 34 1006.8
20260506011525 15 360 22.5 33.8 0.00 0.05 0.05 34 1006.9
20260506010007 15 296 22.5 38.6 0.00 0.05 0.05 33 1006.6
20260506004508 16 360 27.4 48.3 0.00 0.05 0.05 31 1006.5
20260506003055 16 274 30.6 51.5 0.00 0.05 0.05 29 1006.5
20260506001539 16 265 29.0 48.3 0.00 0.05 0.05 31 1006.4
20260506000014 16 360 32.2 51.5 0.00 0.05 0.05 31 1006.4
20260505234553 17 266 29.0 45.1 0.00 0.05 0.05 33 1006.3
20260505233012 17 265 29.0 45.1 0.00 0.05 0.05 35 1006.3
20260505231608 18 289 40.2 51.5 0.00 0.05 0.05 33 1006.5
20260505230055 16 360 30.6 45.1 0.00 0.05 0.05 39 1006.6
20260505224527 17 360 33.8 51.5 0.00 0.05 0.05 39 1006.6
20260505223108 16 262 25.7 41.8 0.00 0.05 0.05 45 1006.7
20260505221604 16 257 24.1 43.5 0.00 0.05 0.05 44 1006.8
20260505220052 16 360 20.9 30.6 0.00 0.05 0.05 48 1007.4
20260505214601 16 360 20.9 30.6 0.00 0.05 0.05 53 1007.7
20260505213011 13 360 12.9 20.9 0.00 0.05 0.05 68 1008.2
20260505211608 12 265 16.1 24.1 0.00 0.05 0.05 67 1007.9
20260505210044 13 360 16.1 37.0 0.00 0.05 0.05 68 1007.8
20260505204527 15 331 20.9 35.4 0.00 0.05 0.05 49 1008.1
20260505203011 16 281 20.9 45.1 0.00 0.05 0.05 48 1008.1
20260505201537 16 360 25.7 38.6 0.00 0.05 0.05 46 1008.3
20260505200021 15 360 29.0 51.5 0.00 0.05 0.05 48 1008.6
20260505194605 15 360 22.5 40.2 0.00 0.05 0.05 52 1008.7
20260505193036 15 360 25.7 37.0 0.03 0.05 0.05 55 1008.6
20260505191612 14 360 25.7 37.0 0.03 0.05 0.05 58 1008.6
20260505190024 13 360 19.3 29.0 0.03 0.05 0.05 66 1009.1
20260505184552 13 360 17.7 35.4 0.03 0.05 0.05 65 1009.1
20260505183050 13 271 24.1 38.6 0.00 0.03 0.03 65 1009.0
20260505181506 12 323 16.1 33.8 0.00 0.03 0.03 68 1009.0
20260505180053 12 360 22.5 40.2 0.00 0.03 0.03 70 1009.0
20260505174523 12 360 19.3 30.6 0.00 0.03 0.03 71 1008.9
20260505173005 11 360 16.1 25.7 0.00 0.03 0.03 75 1008.8
20260505171553 11 360 20.9 30.6 0.00 0.03 0.03 76 1008.7
20260505170034 11 360 17.7 25.7 0.00 0.03 0.03 79 1008.6
20260505164508 10 360 11.3 17.7 0.00 0.03 0.03 81 1008.4
20260505163010 10 360 9.7 17.7 0.00 0.03 0.03 84 1008.5
20260505161603 9 360 12.9 19.3 0.00 0.03 0.03 84 1008.1
20260505153109 9 333 9.7 16.1 0.00 0.03 0.03 85 1008.0
20260505151538 8 360 8.0 12.9 0.00 0.03 0.03 85 1007.9
20260505140114 7 34 8.0 12.9 0.00 0.03 0.03 85 1007.1
20260505124548 7 47 3.2 12.9 0.03 0.03 0.03 84 1007.8
20260505123051 7 325 22.5 37.0 0.00 0.00 0.00 82 1008.2
20260505121544 7 360 22.5 48.3 0.00 0.00 0.00 81 1007.6
20260505120047 8 360 30.6 48.3 0.00 0.00 0.00 73 1007.4
20260505114544 9 360 33.8 53.1 0.00 0.00 0.00 69 1007.1
20260505113032 10 308 33.8 51.5 0.00 0.00 0.00 66 1007.3
20260505111529 10 360 17.7 30.6 0.00 0.00 0.00 73 1007.1
20260505101538 10 360 8.0 27.4 0.00 0.00 0.00 74 1007.2
20260505100021 10 327 14.5 27.4 0.00 0.00 0.00 73 1007.7
20260505094531 10 360 14.5 29.0 0.00 0.00 0.00 72 1007.2
20260505093018 10 360 11.3 22.5 0.00 0.00 0.00 73 1007.2
20260505091515 10 333 9.7 17.7 0.00 0.00 0.00 73 1007.2
20260505090019 9 360 8.0 12.9 0.00 0.00 0.00 74 1007.1
20260505084513 10 355 9.7 16.1 0.00 0.00 0.00 74 1007.5
20260505083017 10 360 9.7 12.9 0.00 0.00 0.00 74 1007.7
20260505081510 10 355 9.7 16.1 0.00 0.00 0.00 73 1008.0
20260505080008 10 350 9.7 16.1 0.00 0.00 0.00 73 1008.2
20260505074504 10 348 6.4 9.7 0.00 0.00 0.00 71 1008.2
20260505073002 10 53 3.2 9.7 0.00 0.00 0.00 70 1008.2
20260505071506 10 50 1.6 8.0 0.00 0.00 0.00 69 1008.0
20260505070104 10 32 8.0 14.5 0.00 0.00 0.00 70 1008.2
20260505064557 10 23 8.0 12.9 0.00 0.00 0.00 68 1008.4
20260505063055 10 333 4.8 12.9 0.00 0.00 0.00 66 1008.0
20260505061554 11 9 8.0 14.5 0.00 0.00 0.00 65 1007.3